• Join FlightAware (Why Join?)
  • Login
  • US Flag 
10:53PM EDT


 

Airport Tracker/Info


-or-


 

Live Flight TrackerFlight Track Log ✈ N546QS ✈ 31-May-2013 ✈ KMFR - KCVO

Flight Track Log - Related Links

Times and Time Zones

All times are in EDT time to prevent confusion due to time zone crossing. See the N546QS flight status page for this flight to view local times or setup timezone preferences in your user account.

Time Position Orientation Groundspeed Altitude Reporting Facility
EDT Latitude Longitude Course Direction KTS MPH feet Rate Location/Type
05:00PM 42.4289 -122.9003 352° North 188 216 5,100  Level Seattle Center
05:01PM 42.5014 -122.9172 350° North 259 298 9,100 3,240 Climbing Seattle Center
05:02PM 42.5803 -122.9319 352° North 292 336 11,700 2,700 Climbing Seattle Center
05:03PM 42.6786 -122.9506 352° North 358 412 14,700 2,880 Climbing Seattle Center
05:04PM 42.7822 -122.9706 352° North 384 442 17,700 1,620 Climbing Seattle Center
05:05PM 42.7955 -122.9591 352° North  Level FlightAware Approximate
05:05PM 42.8900 -122.9900 352° North 394 453 18,000  Level Seattle Center
05:06PM 42.9994 -123.0108 352° North 398 458 18,000  Level Seattle Center
05:07PM 43.1092 -123.0269 354° North 398 458 18,000  Level Seattle Center
05:08PM 43.2175 -123.0475 352° North 395 455 18,000  Level Seattle Center
05:09PM 43.3256 -123.0692 352° North 395 455 18,000 -600 Level Seattle Center
05:10PM 43.4331 -123.0878 353° North 389 448 16,900 -1,620 Descending Seattle Center
05:11PM 43.5600 -123.1136 352° North 383 441 14,800 -1,800 Descending Seattle Center
05:12PM 43.6600 -123.1328 352° North 366 421 13,300 -1,440 Descending Seattle Center
05:13PM 43.7450 -123.1489 352° North 321 369 11,900 -1,380 Descending Seattle Center
05:14PM 43.8078 -123.2025 328° Northwest 279 321 10,500 -1,380 Descending Seattle Center
05:15PM 43.8658 -123.2744 318° Northwest 278 320 9,200 -1,260 Descending Seattle Center
05:16PM 43.9231 -123.3458 318° Northwest 277 319 8,000 -1,140 Descending Seattle Center
05:17PM 43.9992 -123.3489 358° North 286 329 7,000 -1,020 Descending Seattle Center
05:18PM 44.0753 -123.3408 North 276 318 6,000 -720 Descending Seattle Center
05:19PM 44.1517 -123.3356 North 276 318 5,600 -480 Descending Seattle Center
05:20PM 44.2278 -123.3300 North 274 315 5,100 -780 Descending Seattle Center
05:21PM 44.3122 -123.3239 North 267 307 4,100 -1,020 Descending Seattle Center